Time,TemperatureF,DewpointF,PressureIn,WindDirection,WindDirectionDegrees,WindSpeedMPH,WindSpeedGustMPH,Humidity,HourlyPrecipIn,Conditions,Clouds,dailyrainin,SolarRadiationWatts/m^2,SoftwareType,DateUTC
2013-03-29 00:00:00,35.0,28.2,30.28,SSE,150,0.5,2.3,76,0.00,BKN,,0.00,0.0,WeatherDisplay:10.37,2013-03-29 05:00:00,
2013-03-29 00:05:00,34.6,28.1,30.28,SSE,159,0.5,3.0,77,0.00,CLR,,0.00,0.0,WeatherDisplay:10.37,2013-03-29 05:05:00,
2013-03-29 00:10:00,34.5,28.0,30.27,SSE,167,0.9,2.3,77,0.00,CLR,,0.00,0.0,WeatherDisplay:10.37,2013-03-29 05:10:00,
2013-03-29 00:15:00,34.1,28.0,30.27,SSE,167,0.3,2.3,78,0.00,CLR,,0.00,0.0,WeatherDisplay:10.37,2013-03-29 05:15:00,
2013-03-29 00:20:00,34.2,28.1,30.27,South,169,0.1,1.2,78,0.00,CLR,,0.00,0.0,WeatherDisplay:10.37,2013-03-29 05:20:00,
2013-03-29 00:25:00,34.1,28.0,30.27,South,169,0.5,2.3,78,0.00,CLR,,0.00,0.0,WeatherDisplay:10.37,2013-03-29 05:25:00,
2013-03-29 00:30:00,34.0,27.9,30.27,South,169,0.0,0.0,78,0.00,CLR,,0.00,0.0,WeatherDisplay:10.37,2013-03-29 05:30:00,
2013-03-29 00:35:00,33.9,28.1,30.28,South,169,0.0,1.2,79,0.00,CLR,,0.00,0.0,WeatherDisplay:10.37,2013-03-29 05:35:00,
2013-03-29 00:40:00,33.8,28.0,30.28,South,169,0.4,1.2,79,0.00,CLR,,0.00,0.0,WeatherDisplay:10.37,2013-03-29 05:40:00,
2013-03-29 00:45:00,33.9,27.8,30.28,South,169,0.0,2.3,78,0.00,CLR,,0.00,0.0,WeatherDisplay:10.37,2013-03-29 05:45:00,
2013-03-29 00:50:00,33.8,28.0,30.28,South,169,0.0,0.0,79,0.00,CLR,,0.00,0.0,WeatherDisplay:10.37,2013-03-29 05:50:00,
2013-03-29 00:55:00,33.6,27.8,30.28,South,169,0.0,0.0,79,0.00,CLR,,0.00,0.0,WeatherDisplay:10.37,2013-03-29 05:55:00,
2013-03-29 01:00:00,33.4,27.6,30.28,South,169,0.2,1.2,79,0.00,CLR,,0.00,0.0,WeatherDisplay:10.37,2013-03-29 06:00:00,
2013-03-29 01:05:00,33.3,27.8,30.28,South,169,0.0,1.0,80,0.00,CLR,,0.00,0.0,WeatherDisplay:10.37,2013-03-29 06:05:00,
2013-03-29 01:10:00,33.2,27.4,30.28,South,169,0.2,1.2,79,0.00,CLR,,0.00,0.0,WeatherDisplay:10.37,2013-03-29 06:10:00,
2013-03-29 01:15:00,33.0,27.5,30.28,South,169,0.0,0.0,80,0.00,CLR,,0.00,0.0,WeatherDisplay:10.37,2013-03-29 06:15:00,
2013-03-29 01:20:00,33.2,27.7,30.28,South,169,0.0,1.2,80,0.00,CLR,,0.00,0.0,WeatherDisplay:10.37,2013-03-29 06:20:00,
2013-03-29 01:25:00,33.0,27.5,30.28,South,169,0.0,0.0,80,0.00,CLR,,0.00,0.0,WeatherDisplay:10.37,2013-03-29 06:25:00,
2013-03-29 01:30:00,33.0,27.8,30.28,South,169,0.0,0.0,81,0.00,CLR,,0.00,0.0,WeatherDisplay:10.37,2013-03-29 06:30:00,
2013-03-29 01:35:00,33.2,27.7,30.28,South,169,0.4,1.2,80,0.00,CLR,,0.00,0.0,WeatherDisplay:10.37,2013-03-29 06:35:00,
2013-03-29 01:40:00,33.1,27.6,30.28,South,169,0.0,0.0,80,0.00,CLR,,0.00,0.0,WeatherDisplay:10.37,2013-03-29 06:40:00,
2013-03-29 01:45:00,32.9,27.4,30.28,South,169,0.4,1.2,80,0.00,CLR,,0.00,0.0,WeatherDisplay:10.37,2013-03-29 06:45:00,
2013-03-29 01:50:00,32.7,27.5,30.28,South,169,0.0,0.0,81,0.00,CLR,,0.00,0.0,WeatherDisplay:10.37,2013-03-29 06:50:00,
2013-03-29 01:55:00,32.6,27.4,30.28,South,169,0.0,0.0,81,0.00,CLR,,0.00,0.0,WeatherDisplay:10.37,2013-03-29 06:55:00,
2013-03-29 02:00:00,32.6,27.4,30.28,South,169,0.6,1.2,81,0.00,CLR,,0.00,0.0,WeatherDisplay:10.37,2013-03-29 07:00:00,
2013-03-29 02:05:00,32.4,27.5,30.28,South,169,0.1,1.2,82,0.00,CLR,,0.00,0.0,WeatherDisplay:10.37,2013-03-29 07:05:00,
2013-03-29 02:10:00,32.3,27.4,30.28,South,169,0.1,1.2,82,0.00,CLR,,0.00,0.0,WeatherDisplay:10.37,2013-03-29 07:10:00,
2013-03-29 02:15:00,32.2,27.6,30.28,South,169,0.1,1.2,83,0.00,CLR,,0.00,0.0,WeatherDisplay:10.37,2013-03-29 07:15:00,
2013-03-29 02:20:00,32.2,27.6,30.28,South,169,0.6,1.2,83,0.00,CLR,,0.00,0.0,WeatherDisplay:10.37,2013-03-29 07:20:00,
2013-03-29 02:25:00,32.4,27.8,30.28,South,169,1.0,3.5,83,0.00,CLR,,0.00,0.0,WeatherDisplay:10.37,2013-03-29 07:25:00,
2013-03-29 02:30:00,32.8,27.9,30.28,South,169,0.3,2.0,82,0.00,CLR,,0.00,0.0,WeatherDisplay:10.37,2013-03-29 07:30:00,
2013-03-29 02:35:00,33.2,28.3,30.28,South,169,0.5,1.2,82,0.00,CLR,,0.00,0.0,WeatherDisplay:10.37,2013-03-29 07:35:00,
2013-03-29 02:40:00,33.4,28.5,30.28,South,169,0.7,2.3,82,0.00,CLR,,0.00,0.0,WeatherDisplay:10.37,2013-03-29 07:40:00,
2013-03-29 02:45:00,33.4,28.5,30.28,South,169,1.3,2.3,82,0.00,CLR,,0.00,0.0,WeatherDisplay:10.37,2013-03-29 07:45:00,
2013-03-29 02:50:00,33.4,28.5,30.27,South,173,0.2,2.3,82,0.00,CLR,,0.00,0.0,WeatherDisplay:10.37,2013-03-29 07:50:00,
2013-03-29 02:55:00,33.5,28.6,30.28,South,173,1.6,2.3,82,0.00,CLR,,0.00,0.0,WeatherDisplay:10.37,2013-03-29 07:55:00,
2013-03-29 03:00:00,33.7,28.8,30.28,South,171,1.3,3.5,82,0.00,CLR,,0.00,0.0,WeatherDisplay:10.37,2013-03-29 08:00:00,
2013-03-29 03:05:00,33.6,28.7,30.28,South,175,0.3,2.3,82,0.00,SCT,,0.00,0.0,WeatherDisplay:10.37,2013-03-29 08:05:00,
2013-03-29 03:10:00,33.7,28.8,30.28,SSW,194,0.5,2.3,82,0.00,SCT,,0.00,0.0,WeatherDisplay:10.37,2013-03-29 08:10:00,
2013-03-29 03:15:00,33.7,29.1,30.27,SSW,194,0.7,2.0,83,0.00,SCT,,0.00,0.0,WeatherDisplay:10.37,2013-03-29 08:15:00,
2013-03-29 03:20:00,33.8,29.2,30.27,SSW,195,0.2,1.2,83,0.00,SCT,,0.00,0.0,WeatherDisplay:10.37,2013-03-29 08:20:00,
2013-03-29 03:25:00,33.7,29.1,30.27,SSW,195,0.6,1.2,83,0.00,SCT,,0.00,0.0,WeatherDisplay:10.37,2013-03-29 08:25:00,
2013-03-29 03:30:00,33.7,29.1,30.27,SSW,195,0.6,2.3,83,0.00,SCT,,0.00,0.0,WeatherDisplay:10.37,2013-03-29 08:30:00,
2013-03-29 03:35:00,33.6,29.0,30.27,SSW,195,0.3,1.2,83,0.00,SCT,,0.00,0.0,WeatherDisplay:10.37,2013-03-29 08:35:00,
2013-03-29 03:40:00,33.5,28.9,30.27,SSW,195,0.9,3.0,83,0.00,SCT,,0.00,0.0,WeatherDisplay:10.37,2013-03-29 08:40:00,
2013-03-29 03:45:00,33.5,28.9,30.27,SSW,195,0.1,1.2,83,0.00,SCT,,0.00,0.0,WeatherDisplay:10.37,2013-03-29 08:45:00,
2013-03-29 03:50:00,33.2,28.9,30.27,SSW,195,0.1,1.2,84,0.00,SCT,,0.00,0.0,WeatherDisplay:10.37,2013-03-29 08:50:00,
2013-03-29 03:55:00,33.3,28.7,30.27,SSW,195,0.2,1.2,83,0.00,SCT,,0.00,0.0,WeatherDisplay:10.37,2013-03-29 08:55:00,
2013-03-29 04:00:00,33.2,28.6,30.27,SSW,195,0.7,2.3,83,0.00,SCT,,0.00,0.0,WeatherDisplay:10.37,2013-03-29 09:00:00,
2013-03-29 04:05:00,33.0,28.7,30.26,SSW,195,1.1,3.0,84,0.00,OVC,,0.00,0.0,WeatherDisplay:10.37,2013-03-29 09:05:00,
2013-03-29 04:10:00,32.9,28.6,30.26,SSW,195,0.5,2.3,84,0.00,OVC,,0.00,0.0,WeatherDisplay:10.37,2013-03-29 09:10:00,
2013-03-29 04:15:00,32.8,28.5,30.26,SSW,195,1.8,3.5,84,0.00,OVC,,0.00,0.0,WeatherDisplay:10.37,2013-03-29 09:15:00,
2013-03-29 04:20:00,32.8,28.5,30.26,SSW,202,0.1,3.5,84,0.00,OVC,,0.00,0.0,WeatherDisplay:10.37,2013-03-29 09:20:00,
2013-03-29 04:25:00,32.9,28.6,30.26,SSW,202,1.2,3.5,84,0.00,OVC,,0.00,0.0,WeatherDisplay:10.37,2013-03-29 09:25:00,
2013-03-29 04:30:00,32.7,28.4,30.26,SSW,202,0.0,1.0,84,0.00,OVC,,0.00,0.0,WeatherDisplay:10.37,2013-03-29 09:30:00,
2013-03-29 04:35:00,32.6,28.3,30.26,SSW,202,0.1,2.3,84,0.00,OVC,,0.00,0.0,WeatherDisplay:10.37,2013-03-29 09:35:00,
2013-03-29 04:40:00,32.5,28.5,30.25,SSW,202,0.1,1.2,85,0.00,OVC,,0.00,0.0,WeatherDisplay:10.37,2013-03-29 09:40:00,
2013-03-29 04:45:00,32.4,28.4,30.25,SSW,202,0.6,2.3,85,0.00,OVC,,0.00,0.0,WeatherDisplay:10.37,2013-03-29 09:45:00,
2013-03-29 04:50:00,32.4,28.4,30.25,SSW,201,0.2,1.2,85,0.00,OVC,,0.00,0.0,WeatherDisplay:10.37,2013-03-29 09:50:00,
2013-03-29 04:55:00,32.3,28.3,30.25,SSW,200,0.7,2.3,85,0.00,OVC,,0.00,0.0,WeatherDisplay:10.37,2013-03-29 09:55:00,
2013-03-29 05:00:00,32.1,28.1,30.25,SSW,200,0.0,1.2,85,0.00,OVC,,0.00,0.0,WeatherDisplay:10.37,2013-03-29 10:00:00,
2013-03-29 05:05:00,32.0,28.0,30.25,SSW,200,0.4,2.0,85,0.00,OVC,,0.00,0.0,WeatherDisplay:10.37,2013-03-29 10:05:00,
2013-03-29 05:10:00,31.9,27.9,30.25,SSW,200,0.0,2.3,85,0.00,OVC,,0.00,0.0,WeatherDisplay:10.37,2013-03-29 10:10:00,
2013-03-29 05:15:00,31.8,28.1,30.25,SSW,200,0.2,1.2,86,0.00,OVC,,0.00,0.0,WeatherDisplay:10.37,2013-03-29 10:15:00,
2013-03-29 05:20:00,31.7,28.0,30.25,SSW,200,0.9,3.5,86,0.00,OVC,,0.00,0.0,WeatherDisplay:10.37,2013-03-29 10:20:00,
2013-03-29 05:25:00,31.5,27.8,30.25,SSW,200,0.7,2.3,86,0.00,OVC,,0.00,0.0,WeatherDisplay:10.37,2013-03-29 10:25:00,
2013-03-29 05:30:00,31.5,28.1,30.25,SSW,200,0.9,2.3,87,0.00,OVC,,0.00,0.0,WeatherDisplay:10.37,2013-03-29 10:30:00,
2013-03-29 05:35:00,31.7,28.3,30.24,South,169,1.9,4.0,87,0.00,OVC,,0.00,0.0,WeatherDisplay:10.37,2013-03-29 10:35:00,
2013-03-29 05:40:00,31.8,28.1,30.24,South,178,2.1,3.5,86,0.00,OVC,,0.00,0.0,WeatherDisplay:10.37,2013-03-29 10:40:00,
2013-03-29 05:45:00,31.9,28.5,30.24,South,183,0.6,2.3,87,0.00,OVC,,0.00,0.0,WeatherDisplay:10.37,2013-03-29 10:45:00,
2013-03-29 05:50:00,31.9,28.5,30.24,South,183,0.7,2.0,87,0.00,OVC,,0.00,0.0,WeatherDisplay:10.37,2013-03-29 10:50:00,
2013-03-29 05:55:00,32.0,28.3,30.24,South,179,1.8,3.5,86,0.00,OVC,,0.00,0.0,WeatherDisplay:10.37,2013-03-29 10:55:00,
2013-03-29 06:00:00,31.9,28.5,30.24,SSE,164,1.2,2.3,87,0.00,OVC,,0.00,0.0,WeatherDisplay:10.37,2013-03-29 11:00:00,
2013-03-29 06:05:00,32.1,28.4,30.24,South,189,2.4,4.0,86,0.00,BKN,,0.00,0.0,WeatherDisplay:10.37,2013-03-29 11:05:00,
2013-03-29 06:10:00,32.1,28.4,30.25,South,180,1.8,3.5,86,0.00,BKN,,0.00,0.0,WeatherDisplay:10.37,2013-03-29 11:10:00,
2013-03-29 06:15:00,32.0,28.3,30.24,South,169,1.2,3.5,86,0.00,BKN,,0.00,0.0,WeatherDisplay:10.37,2013-03-29 11:15:00,
2013-03-29 06:20:00,31.8,28.1,30.24,South,175,1.8,3.5,86,0.00,BKN,,0.00,0.0,WeatherDisplay:10.37,2013-03-29 11:20:00,
2013-03-29 06:25:00,31.7,28.0,30.24,SSE,168,1.9,4.0,86,0.00,BKN,,0.00,0.0,WeatherDisplay:10.37,2013-03-29 11:25:00,
2013-03-29 06:30:00,31.8,28.1,30.24,SSW,192,2.8,4.0,86,0.00,BKN,,0.00,0.0,WeatherDisplay:10.37,2013-03-29 11:30:00,
2013-03-29 06:35:00,31.7,28.0,30.24,SSW,192,1.1,3.5,86,0.00,BKN,,0.00,0.0,WeatherDisplay:10.37,2013-03-29 11:35:00,
2013-03-29 06:40:00,31.9,28.5,30.24,South,191,0.7,2.3,87,0.00,BKN,,0.00,0.0,WeatherDisplay:10.37,2013-03-29 11:40:00,
2013-03-29 06:45:00,31.8,28.4,30.24,South,191,0.5,2.0,87,0.00,BKN,,0.00,0.0,WeatherDisplay:10.37,2013-03-29 11:45:00,
2013-03-29 06:50:00,31.6,28.2,30.25,South,186,1.5,3.5,87,0.00,BKN,,0.00,0.0,WeatherDisplay:10.37,2013-03-29 11:50:00,
2013-03-29 06:55:00,31.7,28.3,30.25,South,184,1.0,3.5,87,0.00,BKN,,0.00,0.0,WeatherDisplay:10.37,2013-03-29 11:55:00,
2013-03-29 07:00:00,31.8,28.4,30.25,SSW,192,2.1,4.0,87,0.00,BKN,,0.00,0.0,WeatherDisplay:10.37,2013-03-29 12:00:00,
2013-03-29 07:05:00,31.8,28.4,30.25,South,191,0.9,2.3,87,0.00,BKN,,0.00,0.0,WeatherDisplay:10.37,2013-03-29 12:05:00,
2013-03-29 07:10:00,31.9,28.5,30.25,SSE,159,1.0,2.3,87,0.00,BKN,,0.00,7.0,WeatherDisplay:10.37,2013-03-29 12:10:00,
2013-03-29 07:15:00,32.0,28.6,30.25,South,172,0.9,3.5,87,0.00,BKN,,0.00,9.0,WeatherDisplay:10.37,2013-03-29 12:15:00,
2013-03-29 07:20:00,32.2,28.8,30.25,South,173,1.2,2.0,87,0.00,BKN,,0.00,12.0,WeatherDisplay:10.37,2013-03-29 12:20:00,
2013-03-29 07:25:00,32.3,28.9,30.25,South,175,0.7,2.3,87,0.00,BKN,,0.00,18.0,WeatherDisplay:10.37,2013-03-29 12:25:00,
2013-03-29 07:30:00,32.3,28.9,30.25,South,174,1.6,3.5,87,0.00,BKN,,0.00,23.0,WeatherDisplay:10.37,2013-03-29 12:30:00,
2013-03-29 07:35:00,32.2,28.8,30.25,South,174,0.4,2.0,87,0.00,BKN,,0.00,30.0,WeatherDisplay:10.37,2013-03-29 12:35:00,
2013-03-29 07:40:00,32.2,28.8,30.25,South,174,0.0,0.0,87,0.00,BKN,,0.00,39.0,WeatherDisplay:10.37,2013-03-29 12:40:00,
2013-03-29 07:45:00,32.5,29.1,30.25,South,174,0.1,1.2,87,0.00,BKN,,0.00,42.0,WeatherDisplay:10.37,2013-03-29 12:45:00,
2013-03-29 07:50:00,32.7,29.0,30.25,South,174,0.7,2.0,86,0.00,BKN,,0.00,56.0,WeatherDisplay:10.37,2013-03-29 12:50:00,
2013-03-29 07:55:00,32.7,29.0,30.25,South,179,1.6,3.5,86,0.00,BKN,,0.00,65.0,WeatherDisplay:10.37,2013-03-29 12:55:00,
2013-03-29 08:00:00,32.7,29.0,30.25,South,179,0.3,1.2,86,0.00,BKN,,0.00,72.0,WeatherDisplay:10.37,2013-03-29 13:00:00,
2013-03-29 08:05:00,32.9,29.2,30.25,South,178,0.8,2.3,86,0.00,OVC,,0.00,76.0,WeatherDisplay:10.37,2013-03-29 13:05:00,
2013-03-29 08:10:00,32.9,29.2,30.25,South,178,0.1,1.2,86,0.00,OVC,,0.00,77.0,WeatherDisplay:10.37,2013-03-29 13:10:00,
2013-03-29 08:15:00,33.0,29.0,30.25,South,178,0.4,2.3,85,0.00,OVC,,0.00,95.0,WeatherDisplay:10.37,2013-03-29 13:15:00,
2013-03-29 08:20:00,33.3,29.3,30.25,South,178,0.2,2.3,85,0.00,OVC,,0.00,109.0,WeatherDisplay:10.37,2013-03-29 13:20:00,
2013-03-29 08:25:00,33.4,29.4,30.25,South,178,0.2,2.3,85,0.00,OVC,,0.00,95.0,WeatherDisplay:10.37,2013-03-29 13:25:00,
2013-03-29 08:30:00,33.6,29.6,30.25,South,180,1.2,3.5,85,0.00,OVC,,0.00,98.0,WeatherDisplay:10.37,2013-03-29 13:30:00,
2013-03-29 08:35:00,33.7,29.7,30.25,SSE,167,1.4,3.5,85,0.00,OVC,,0.00,107.0,WeatherDisplay:10.37,2013-03-29 13:35:00,
2013-03-29 08:40:00,33.7,29.4,30.25,SSE,164,1.7,5.0,84,0.00,OVC,,0.00,111.0,WeatherDisplay:10.37,2013-03-29 13:40:00,
2013-03-29 08:45:00,33.8,29.5,30.25,South,187,2.1,3.5,84,0.00,OVC,,0.00,113.0,WeatherDisplay:10.37,2013-03-29 13:45:00,
2013-03-29 08:50:00,33.9,29.6,30.25,South,186,1.0,3.0,84,0.00,OVC,,0.00,127.0,WeatherDisplay:10.37,2013-03-29 13:50:00,
2013-03-29 08:55:00,34.1,29.8,30.25,South,180,3.2,5.0,84,0.00,OVC,,0.00,178.0,WeatherDisplay:10.37,2013-03-29 13:55:00,
2013-03-29 09:00:00,34.2,29.9,30.25,SSE,161,2.6,4.0,84,0.00,OVC,,0.00,188.0,WeatherDisplay:10.37,2013-03-29 14:00:00,
2013-03-29 09:05:00,34.3,30.0,30.25,South,184,1.4,3.5,84,0.00,OVC,,0.00,179.0,WeatherDisplay:10.37,2013-03-29 14:05:00,
2013-03-29 09:10:00,35.1,30.5,30.25,SSE,163,2.5,4.0,83,0.00,OVC,,0.00,301.0,WeatherDisplay:10.37,2013-03-29 14:10:00,
2013-03-29 09:15:00,35.6,30.6,30.26,SSW,194,2.0,3.5,82,0.00,OVC,,0.00,232.0,WeatherDisplay:10.37,2013-03-29 14:15:00,
2013-03-29 09:20:00,35.7,30.4,30.25,SSW,200,3.0,5.8,81,0.00,OVC,,0.00,162.0,WeatherDisplay:10.37,2013-03-29 14:20:00,
2013-03-29 09:25:00,35.6,30.3,30.25,SSE,168,1.2,3.5,81,0.00,OVC,,0.00,162.0,WeatherDisplay:10.37,2013-03-29 14:25:00,
2013-03-29 09:30:00,35.7,30.7,30.25,SSW,199,1.6,5.8,82,0.00,OVC,,0.00,350.0,WeatherDisplay:10.37,2013-03-29 14:30:00,
2013-03-29 09:35:00,36.6,31.3,30.25,SSE,168,1.8,4.0,81,0.00,OVC,,0.00,364.0,WeatherDisplay:10.37,2013-03-29 14:35:00,
2013-03-29 09:40:00,37.5,31.6,30.25,SSE,161,4.7,7.0,79,0.00,OVC,,0.00,448.0,WeatherDisplay:10.37,2013-03-29 14:40:00,
2013-03-29 09:45:00,37.7,31.5,30.25,South,172,2.8,4.6,78,0.00,OVC,,0.00,548.0,WeatherDisplay:10.37,2013-03-29 14:45:00,
2013-03-29 09:50:00,38.1,31.8,30.25,SSW,192,4.4,8.0,78,0.00,OVC,,0.00,285.0,WeatherDisplay:10.37,2013-03-29 14:50:00,
2013-03-29 09:55:00,38.2,31.9,30.25,SSW,196,3.8,6.9,78,0.00,OVC,,0.00,276.0,WeatherDisplay:10.37,2013-03-29 14:55:00,
2013-03-29 10:00:00,38.6,32.6,30.24,South,190,2.8,4.0,79,0.00,OVC,,0.00,322.0,WeatherDisplay:10.37,2013-03-29 15:00:00,
2013-03-29 10:05:00,39.0,32.7,30.24,South,172,2.9,4.0,78,0.00,OVC,,0.00,229.0,WeatherDisplay:10.37,2013-03-29 15:05:00,
2013-03-29 10:10:00,39.1,32.8,30.24,South,188,1.5,3.0,78,0.00,OVC,,0.00,214.0,WeatherDisplay:10.37,2013-03-29 15:10:00,
2013-03-29 10:15:00,39.8,33.2,30.24,SW,215,5.7,8.1,77,0.00,OVC,,0.00,519.0,WeatherDisplay:10.37,2013-03-29 15:15:00,
2013-03-29 10:20:00,40.2,33.2,30.24,South,172,6.0,9.2,76,0.00,OVC,,0.00,401.0,WeatherDisplay:10.37,2013-03-29 15:20:00,
2013-03-29 10:25:00,40.1,33.1,30.24,South,184,2.7,4.6,76,0.00,OVC,,0.00,371.0,WeatherDisplay:10.37,2013-03-29 15:25:00,
2013-03-29 10:30:00,40.5,33.5,30.24,SSE,168,4.4,5.0,76,0.00,OVC,,0.00,383.0,WeatherDisplay:10.37,2013-03-29 15:30:00,
2013-03-29 10:35:00,40.5,33.5,30.24,SSE,167,4.2,6.0,76,0.00,OVC,,0.00,360.0,WeatherDisplay:10.37,2013-03-29 15:35:00,
2013-03-29 10:40:00,40.3,33.3,30.24,South,175,4.3,6.0,76,0.00,OVC,,0.00,304.0,WeatherDisplay:10.37,2013-03-29 15:40:00,
2013-03-29 10:45:00,40.3,33.7,30.24,South,172,2.2,5.8,77,0.00,OVC,,0.00,308.0,WeatherDisplay:10.37,2013-03-29 15:45:00,
2013-03-29 10:50:00,40.4,33.4,30.24,South,184,3.6,6.0,76,0.00,OVC,,0.00,274.0,WeatherDisplay:10.37,2013-03-29 15:50:00,
2013-03-29 10:55:00,40.5,33.5,30.24,South,190,3.5,6.0,76,0.00,OVC,,0.00,302.0,WeatherDisplay:10.37,2013-03-29 15:55:00,
2013-03-29 11:00:00,40.4,33.4,30.24,South,178,2.8,5.8,76,0.00,OVC,,0.00,376.0,WeatherDisplay:10.37,2013-03-29 16:00:00,
2013-03-29 11:05:00,40.6,33.6,30.24,SSE,168,3.0,6.0,76,0.00,BKN,,0.00,283.0,WeatherDisplay:10.37,2013-03-29 16:05:00,
2013-03-29 11:10:00,40.7,33.7,30.24,South,188,2.7,6.9,76,0.00,BKN,,0.00,406.0,WeatherDisplay:10.37,2013-03-29 16:10:00,
2013-03-29 11:15:00,41.1,33.8,30.24,SSW,196,2.8,5.0,75,0.00,BKN,,0.00,294.0,WeatherDisplay:10.37,2013-03-29 16:15:00,
2013-03-29 11:20:00,41.7,34.0,30.24,SSE,168,0.8,3.5,74,0.00,BKN,,0.00,415.0,WeatherDisplay:10.37,2013-03-29 16:20:00,
2013-03-29 11:25:00,42.4,34.4,30.24,South,175,1.9,4.0,73,0.00,BKN,,0.00,316.0,WeatherDisplay:10.37,2013-03-29 16:25:00,
2013-03-29 11:30:00,42.7,34.3,30.23,South,176,2.8,5.0,72,0.00,BKN,,0.00,907.0,WeatherDisplay:10.37,2013-03-29 16:30:00,
2013-03-29 11:35:00,43.4,34.6,30.23,SSE,164,3.0,5.0,71,0.00,BKN,,0.00,490.0,WeatherDisplay:10.37,2013-03-29 16:35:00,
2013-03-29 11:40:00,43.1,34.7,30.23,South,181,1.1,3.5,72,0.00,BKN,,0.00,427.0,WeatherDisplay:10.37,2013-03-29 16:40:00,
2013-03-29 11:45:00,43.0,34.2,30.24,SSW,192,3.6,5.0,71,0.00,BKN,,0.00,397.0,WeatherDisplay:10.37,2013-03-29 16:45:00,
2013-03-29 11:50:00,43.2,34.8,30.23,South,179,0.9,3.5,72,0.00,BKN,,0.00,381.0,WeatherDisplay:10.37,2013-03-29 16:50:00,
2013-03-29 11:55:00,43.6,34.8,30.23,South,186,2.0,6.0,71,0.00,BKN,,0.00,420.0,WeatherDisplay:10.37,2013-03-29 16:55:00,
2013-03-29 12:00:00,43.6,34.8,30.23,South,171,0.9,3.5,71,0.00,BKN,,0.00,367.0,WeatherDisplay:10.37,2013-03-29 17:00:00,
2013-03-29 12:05:00,43.4,34.3,30.23,South,188,1.2,3.5,70,0.00,BKN,,0.00,425.0,WeatherDisplay:10.37,2013-03-29 17:05:00,
2013-03-29 12:10:00,43.7,34.9,30.23,South,186,2.2,5.0,71,0.00,BKN,,0.00,443.0,WeatherDisplay:10.37,2013-03-29 17:10:00,
2013-03-29 12:15:00,44.1,35.3,30.23,South,188,2.2,5.0,71,0.00,BKN,,0.00,399.0,WeatherDisplay:10.37,2013-03-29 17:15:00,
2013-03-29 12:20:00,44.0,35.2,30.23,South,175,1.7,4.0,71,0.00,BKN,,0.00,445.0,WeatherDisplay:10.37,2013-03-29 17:20:00,
2013-03-29 12:25:00,44.2,35.0,30.23,South,184,5.1,7.0,70,0.00,BKN,,0.00,568.0,WeatherDisplay:10.37,2013-03-29 17:25:00,
2013-03-29 12:30:00,44.4,34.9,30.23,South,176,6.2,10.4,69,0.00,BKN,,0.00,531.0,WeatherDisplay:10.37,2013-03-29 17:30:00,
2013-03-29 12:35:00,44.0,34.8,30.23,South,191,3.1,5.8,70,0.00,BKN,,0.00,366.0,WeatherDisplay:10.37,2013-03-29 17:35:00,
2013-03-29 12:40:00,43.8,35.0,30.22,South,175,4.3,7.0,71,0.00,BKN,,0.00,388.0,WeatherDisplay:10.37,2013-03-29 17:40:00,
2013-03-29 12:45:00,44.5,34.9,30.22,South,176,5.0,9.0,69,0.00,BKN,BKN,0.00,891.0,WeatherDisplay:10.37,2013-03-29 17:45:00,
2013-03-29 12:50:00,44.7,35.1,30.22,South,183,3.0,7.0,69,0.00,BKN,BKN,0.00,492.0,WeatherDisplay:10.37,2013-03-29 17:50:00,
2013-03-29 12:55:00,44.9,35.3,30.22,South,182,2.0,5.0,69,0.00,BKN,BKN,0.00,571.0,WeatherDisplay:10.37,2013-03-29 17:55:00,
2013-03-29 13:00:00,45.2,35.3,30.22,South,178,1.0,7.0,68,0.00,BKN,BKN,0.00,664.0,WeatherDisplay:10.37,2013-03-29 18:00:00,
2013-03-29 13:05:00,45.8,35.5,30.22,South,172,1.0,5.0,67,0.00,OVC,OVC,0.00,953.0,WeatherDisplay:10.37,2013-03-29 18:05:00,
2013-03-29 13:10:00,46.4,35.7,30.22,South,179,1.0,5.0,66,0.00,OVC,OVC,0.00,849.0,WeatherDisplay:10.37,2013-03-29 18:10:00,
2013-03-29 13:15:00,46.8,35.7,30.22,South,176,1.0,4.0,65,0.00,OVC,OVC,0.00,865.0,WeatherDisplay:10.37,2013-03-29 18:15:00,
2013-03-29 13:20:00,47.0,36.2,30.22,SE,143,2.0,6.0,66,0.00,OVC,OVC,0.00,867.0,WeatherDisplay:10.37,2013-03-29 18:20:00,
2013-03-29 13:26:00,46.7,35.2,30.21,SSW,198,4.9,8.0,64,0.00,OVC,,0.00,911.0,WeatherDisplay:10.37,2013-03-29 18:26:00,
2013-03-29 13:32:00,47.3,36.1,30.21,SSE,150,1.6,3.5,65,0.00,OVC,,0.00,872.0,WeatherDisplay:10.37,2013-03-29 18:32:00,
2013-03-29 13:37:00,47.0,35.0,30.21,South,178,2.4,5.0,63,0.00,OVC,,0.00,339.0,WeatherDisplay:10.37,2013-03-29 18:37:00,
2013-03-29 13:43:00,47.1,35.9,30.21,SE,140,2.0,4.0,65,0.00,OVC,,0.00,816.0,WeatherDisplay:10.37,2013-03-29 18:43:00,
2013-03-29 13:48:00,47.6,36.0,30.20,SSE,153,3.6,6.0,64,0.00,OVC,,0.00,775.0,WeatherDisplay:10.37,2013-03-29 18:48:00,
2013-03-29 13:53:00,47.6,36.0,30.20,SSW,210,2.5,5.0,64,0.00,OVC,,0.00,765.0,WeatherDisplay:10.37,2013-03-29 18:53:00,
2013-03-29 13:58:00,47.6,36.0,30.20,South,188,1.3,5.0,64,0.00,OVC,,0.00,763.0,WeatherDisplay:10.37,2013-03-29 18:58:00,
2013-03-29 14:03:00,47.7,35.7,30.19,SSE,159,2.1,4.6,63,0.00,BKN,,0.00,759.0,WeatherDisplay:10.37,2013-03-29 19:03:00,
2013-03-29 14:08:00,47.9,35.9,30.19,South,179,2.9,5.0,63,0.00,BKN,,0.00,751.0,WeatherDisplay:10.37,2013-03-29 19:08:00,
2013-03-29 14:13:00,48.2,35.8,30.19,South,184,2.6,5.8,62,0.00,BKN,,0.00,751.0,WeatherDisplay:10.37,2013-03-29 19:13:00,
2013-03-29 14:18:00,48.6,36.2,30.19,South,178,2.2,4.0,62,0.00,BKN,,0.00,744.0,WeatherDisplay:10.37,2013-03-29 19:18:00,
2013-03-29 14:23:00,48.6,35.7,30.18,NNE,33,2.4,5.0,61,0.00,BKN,,0.00,742.0,WeatherDisplay:10.37,2013-03-29 19:23:00,
2013-03-29 14:28:00,48.8,35.9,30.19,South,173,2.1,3.5,61,0.00,BKN,,0.00,735.0,WeatherDisplay:10.37,2013-03-29 19:28:00,
2013-03-29 14:33:00,48.9,36.4,30.18,SSW,196,1.9,4.6,62,0.00,BKN,,0.00,735.0,WeatherDisplay:10.37,2013-03-29 19:33:00,
2013-03-29 14:38:00,49.3,36.0,30.18,South,188,1.4,3.5,60,0.00,BKN,,0.00,724.0,WeatherDisplay:10.37,2013-03-29 19:38:00,
2013-03-29 14:43:00,49.4,36.1,30.18,South,178,4.3,8.1,60,0.00,BKN,,0.00,724.0,WeatherDisplay:10.37,2013-03-29 19:43:00,
2013-03-29 14:48:00,49.6,36.7,30.18,SE,145,2.7,5.0,61,0.00,BKN,,0.00,722.0,WeatherDisplay:10.37,2013-03-29 19:48:00,
2013-03-29 14:53:00,49.6,35.8,30.18,SSW,202,3.9,8.1,59,0.00,BKN,,0.00,357.0,WeatherDisplay:10.37,2013-03-29 19:53:00,
2013-03-29 14:59:00,49.3,36.4,30.17,South,174,2.3,4.0,61,0.00,BKN,,0.00,729.0,WeatherDisplay:10.37,2013-03-29 19:59:00,
2013-03-29 15:04:00,49.1,36.2,30.17,SSE,161,1.9,4.0,61,0.00,BKN,,0.00,671.0,WeatherDisplay:10.37,2013-03-29 20:04:00,
2013-03-29 15:09:00,49.1,35.8,30.17,SSE,160,2.2,3.5,60,0.00,BKN,,0.00,700.0,WeatherDisplay:10.37,2013-03-29 20:09:00,
2013-03-29 15:14:00,49.0,36.1,30.17,South,184,2.9,5.0,61,0.00,BKN,,0.00,691.0,WeatherDisplay:10.37,2013-03-29 20:14:00,
2013-03-29 15:19:00,49.3,36.4,30.17,South,180,2.1,4.0,61,0.00,BKN,,0.00,661.0,WeatherDisplay:10.37,2013-03-29 20:19:00,
2013-03-29 15:24:00,49.2,36.3,30.17,SSW,196,2.2,5.0,61,0.00,BKN,,0.00,652.0,WeatherDisplay:10.37,2013-03-29 20:24:00,
2013-03-29 15:29:00,49.1,36.2,30.17,SSE,150,2.4,4.0,61,0.00,BKN,,0.00,647.0,WeatherDisplay:10.37,2013-03-29 20:29:00,
2013-03-29 15:34:00,49.1,36.2,30.17,South,186,2.7,5.0,61,0.00,BKN,,0.00,645.0,WeatherDisplay:10.37,2013-03-29 20:34:00,
2013-03-29 15:39:00,49.1,35.8,30.17,South,175,5.6,10.0,60,0.00,BKN,,0.00,633.0,WeatherDisplay:10.37,2013-03-29 20:39:00,
2013-03-29 15:44:00,48.3,35.9,30.16,South,175,3.2,6.0,62,0.00,BKN,,0.00,563.0,WeatherDisplay:10.37,2013-03-29 20:44:00,
2013-03-29 15:49:00,48.0,36.4,30.16,South,180,5.5,10.4,64,0.00,BKN,,0.00,534.0,WeatherDisplay:10.37,2013-03-29 20:49:00,
2013-03-29 15:54:00,47.9,36.3,30.16,South,173,4.0,8.0,64,0.00,BKN,,0.00,520.0,WeatherDisplay:10.37,2013-03-29 20:54:00,
2013-03-29 15:59:00,47.9,36.3,30.16,South,186,3.1,9.2,64,0.00,BKN,,0.00,550.0,WeatherDisplay:10.37,2013-03-29 20:59:00,
2013-03-29 16:04:00,48.0,36.4,30.15,SE,138,3.5,6.0,64,0.00,FEW,,0.00,517.0,WeatherDisplay:10.37,2013-03-29 21:04:00,
2013-03-29 16:09:00,48.0,36.8,30.15,SSE,149,3.5,6.0,65,0.00,FEW,,0.00,503.0,WeatherDisplay:10.37,2013-03-29 21:09:00,
2013-03-29 16:14:00,47.8,37.0,30.15,SSW,192,2.0,5.8,66,0.00,FEW,,0.00,490.0,WeatherDisplay:10.37,2013-03-29 21:14:00,
2013-03-29 16:19:00,47.9,37.1,30.15,SW,214,6.8,9.2,66,0.00,FEW,,0.00,462.0,WeatherDisplay:10.37,2013-03-29 21:19:00,
2013-03-29 16:24:00,47.9,36.7,30.15,SSW,195,1.8,4.6,65,0.00,FEW,,0.00,425.0,WeatherDisplay:10.37,2013-03-29 21:24:00,
2013-03-29 16:29:00,48.2,37.0,30.15,East,79,4.4,7.0,65,0.00,FEW,,0.00,439.0,WeatherDisplay:10.37,2013-03-29 21:29:00,
2013-03-29 16:34:00,48.1,37.3,30.15,SSE,151,3.3,6.0,66,0.00,FEW,,0.00,429.0,WeatherDisplay:10.37,2013-03-29 21:34:00,
2013-03-29 16:39:00,48.2,37.0,30.14,South,172,3.0,7.0,65,0.00,FEW,,0.00,446.0,WeatherDisplay:10.37,2013-03-29 21:39:00,
2013-03-29 16:44:00,48.2,37.4,30.14,South,175,2.0,4.0,66,0.00,FEW,,0.00,422.0,WeatherDisplay:10.37,2013-03-29 21:44:00,
2013-03-29 16:49:00,48.4,37.2,30.14,South,174,3.0,5.0,65,0.00,FEW,,0.00,420.0,WeatherDisplay:10.37,2013-03-29 21:49:00,
2013-03-29 16:54:00,48.2,37.0,30.14,South,179,2.2,3.5,65,0.00,FEW,,0.00,404.0,WeatherDisplay:10.37,2013-03-29 21:54:00,
2013-03-29 16:59:00,48.2,37.4,30.14,South,175,2.1,4.0,66,0.00,FEW,,0.00,385.0,WeatherDisplay:10.37,2013-03-29 21:59:00,
2013-03-29 17:04:00,48.1,37.3,30.13,SSE,157,2.2,5.0,66,0.00,CLR,,0.00,390.0,WeatherDisplay:10.37,2013-03-29 22:04:00,
2013-03-29 17:09:00,48.2,37.8,30.13,South,174,2.2,4.0,67,0.00,CLR,,0.00,338.0,WeatherDisplay:10.37,2013-03-29 22:09:00,
2013-03-29 17:14:00,48.0,37.6,30.13,SSW,205,3.1,5.0,67,0.00,CLR,,0.00,360.0,WeatherDisplay:10.37,2013-03-29 22:14:00,
2013-03-29 17:19:00,48.0,37.9,30.13,SSW,192,2.7,6.0,68,0.00,CLR,,0.00,292.0,WeatherDisplay:10.37,2013-03-29 22:19:00,
2013-03-29 17:24:00,47.8,37.7,30.13,SSW,195,3.4,5.0,68,0.00,CLR,,0.00,334.0,WeatherDisplay:10.37,2013-03-29 22:24:00,
2013-03-29 17:29:00,47.8,37.7,30.13,SW,221,2.2,4.0,68,0.00,CLR,,0.00,322.0,WeatherDisplay:10.37,2013-03-29 22:29:00,
2013-03-29 17:34:00,47.8,37.7,30.13,South,173,1.4,3.5,68,0.00,CLR,,0.00,290.0,WeatherDisplay:10.37,2013-03-29 22:34:00,
2013-03-29 17:39:00,47.5,37.8,30.13,SSW,194,3.5,8.0,69,0.00,CLR,,0.00,260.0,WeatherDisplay:10.37,2013-03-29 22:39:00,
2013-03-29 17:44:00,47.2,37.5,30.13,ENE,67,2.4,6.0,69,0.00,CLR,,0.00,257.0,WeatherDisplay:10.37,2013-03-29 22:44:00,
2013-03-29 17:49:00,47.1,37.8,30.13,SSE,163,3.1,5.0,70,0.00,CLR,,0.00,244.0,WeatherDisplay:10.37,2013-03-29 22:49:00,
2013-03-29 17:54:00,47.1,37.8,30.13,SSE,167,3.2,6.0,70,0.00,CLR,,0.00,229.0,WeatherDisplay:10.37,2013-03-29 22:54:00,
2013-03-29 17:59:00,47.0,38.1,30.13,SSE,161,3.0,5.0,71,0.00,CLR,,0.00,223.0,WeatherDisplay:10.37,2013-03-29 22:59:00,
2013-03-29 18:04:00,46.9,38.0,30.12,SSE,159,2.1,5.0,71,0.00,CLR,,0.00,183.0,WeatherDisplay:10.37,2013-03-29 23:04:00,
2013-03-29 18:09:00,46.6,38.1,30.12,South,175,5.1,7.0,72,0.00,CLR,,0.00,158.0,WeatherDisplay:10.37,2013-03-29 23:09:00,
2013-03-29 18:14:00,46.2,38.0,30.12,South,182,2.2,5.8,73,0.00,CLR,,0.00,148.0,WeatherDisplay:10.37,2013-03-29 23:14:00,
2013-03-29 18:19:00,45.9,38.1,30.12,South,183,3.9,8.1,74,0.00,CLR,,0.00,134.0,WeatherDisplay:10.37,2013-03-29 23:19:00,
2013-03-29 18:24:00,45.8,38.0,30.12,SSW,194,3.6,6.0,74,0.00,CLR,,0.00,102.0,WeatherDisplay:10.37,2013-03-29 23:24:00,
2013-03-29 18:29:00,45.6,38.1,30.12,SSE,163,2.6,7.0,75,0.00,CLR,,0.00,90.0,WeatherDisplay:10.37,2013-03-29 23:29:00,
2013-03-29 18:34:00,45.3,37.8,30.12,South,182,2.1,4.6,75,0.00,CLR,,0.00,83.0,WeatherDisplay:10.37,2013-03-29 23:34:00,
2013-03-29 18:39:00,45.3,38.2,30.12,South,180,2.7,5.8,76,0.00,CLR,,0.00,105.0,WeatherDisplay:10.37,2013-03-29 23:39:00,
2013-03-29 18:44:00,45.3,37.8,30.12,SE,142,1.7,3.5,75,0.00,CLR,,0.00,100.0,WeatherDisplay:10.37,2013-03-29 23:44:00,
2013-03-29 18:49:00,45.0,37.9,30.12,SSE,159,2.5,4.0,76,0.00,CLR,,0.00,79.0,WeatherDisplay:10.37,2013-03-29 23:49:00,
2013-03-29 18:54:00,44.7,37.9,30.11,South,185,2.3,4.0,77,0.00,CLR,,0.00,54.0,WeatherDisplay:10.37,2013-03-29 23:54:00,
2013-03-29 18:59:00,44.4,37.6,30.11,SSW,193,2.6,4.0,77,0.00,CLR,,0.00,44.0,WeatherDisplay:10.37,2013-03-29 23:59:00,
2013-03-29 19:04:00,44.3,37.9,30.11,South,178,2.4,4.0,78,0.00,CLR,,0.00,32.0,WeatherDisplay:10.37,2013-03-30 00:04:00,
2013-03-29 19:09:00,44.2,37.8,30.12,SE,146,2.4,5.0,78,0.00,CLR,,0.00,23.0,WeatherDisplay:10.37,2013-03-30 00:09:00,
2013-03-29 19:14:00,43.9,37.5,30.12,SSW,197,2.4,4.6,78,0.00,CLR,,0.00,16.0,WeatherDisplay:10.37,2013-03-30 00:14:00,
2013-03-29 19:19:00,43.7,37.6,30.12,SSW,196,2.4,4.0,79,0.00,CLR,,0.00,12.0,WeatherDisplay:10.37,2013-03-30 00:19:00,
2013-03-29 19:24:00,43.4,37.3,30.11,South,188,1.7,3.5,79,0.00,CLR,,0.00,9.0,WeatherDisplay:10.37,2013-03-30 00:24:00,
2013-03-29 19:29:00,43.4,37.6,30.11,South,169,3.0,6.0,80,0.00,CLR,,0.00,7.0,WeatherDisplay:10.37,2013-03-30 00:29:00,
2013-03-29 19:34:00,43.3,37.5,30.12,South,169,2.6,4.0,80,0.00,CLR,,0.00,0.0,WeatherDisplay:10.37,2013-03-30 00:34:00,
2013-03-29 19:39:00,43.3,37.5,30.12,SSE,159,0.7,2.3,80,0.00,CLR,,0.00,0.0,WeatherDisplay:10.37,2013-03-30 00:39:00,
2013-03-29 19:44:00,43.4,37.6,30.12,SSE,162,1.5,3.0,80,0.00,CLR,,0.00,0.0,WeatherDisplay:10.37,2013-03-30 00:44:00,
2013-03-29 19:49:00,43.2,37.4,30.11,South,180,2.4,4.0,80,0.00,CLR,,0.00,0.0,WeatherDisplay:10.37,2013-03-30 00:49:00,
2013-03-29 19:54:00,42.8,37.4,30.11,South,184,2.0,4.6,81,0.00,CLR,,0.00,0.0,WeatherDisplay:10.37,2013-03-30 00:54:00,
2013-03-29 19:59:00,42.8,37.7,30.11,South,184,3.5,5.8,82,0.00,CLR,,0.00,0.0,WeatherDisplay:10.37,2013-03-30 00:59:00,
2013-03-29 20:04:00,42.5,37.4,30.11,SSE,166,2.0,5.0,82,0.00,OVC,,0.00,0.0,WeatherDisplay:10.37,2013-03-30 01:04:00,
2013-03-29 20:09:00,42.6,37.5,30.11,SSW,204,2.0,6.9,82,0.00,OVC,,0.00,0.0,WeatherDisplay:10.37,2013-03-30 01:09:00,
2013-03-29 20:14:00,42.4,37.6,30.11,South,178,2.8,5.0,83,0.00,OVC,,0.00,0.0,WeatherDisplay:10.37,2013-03-30 01:14:00,
2013-03-29 20:19:00,42.3,37.5,30.11,SSW,196,2.9,4.0,83,0.00,OVC,,0.00,0.0,WeatherDisplay:10.37,2013-03-30 01:19:00,
2013-03-29 20:25:00,42.3,37.2,30.10,South,191,1.6,7.0,82,0.00,OVC,,0.00,0.0,WeatherDisplay:10.37,2013-03-30 01:25:00,
2013-03-29 20:30:00,42.4,37.6,30.10,South,186,1.9,3.5,83,0.00,OVC,,0.00,0.0,WeatherDisplay:10.37,2013-03-30 01:30:00,
2013-03-29 20:35:00,42.4,37.6,30.10,South,173,3.0,6.0,83,0.00,OVC,OVC,0.00,0.0,WeatherDisplay:10.37,2013-03-30 01:35:00,
2013-03-29 20:41:00,42.6,37.8,30.10,South,190,2.9,4.6,83,0.00,OVC,,0.00,0.0,WeatherDisplay:10.37,2013-03-30 01:41:00,
2013-03-29 20:46:00,42.3,37.5,30.10,South,182,2.9,5.0,83,0.00,OVC,,0.00,0.0,WeatherDisplay:10.37,2013-03-30 01:46:00,
2013-03-29 20:51:00,42.1,37.6,30.10,South,180,2.8,4.0,84,0.00,OVC,,0.00,0.0,WeatherDisplay:10.37,2013-03-30 01:51:00,
2013-03-29 20:57:00,41.9,37.4,30.10,South,171,1.7,3.5,84,0.00,OVC,,0.00,0.0,WeatherDisplay:10.37,2013-03-30 01:57:00,
2013-03-29 21:02:00,41.7,37.5,30.10,South,169,2.2,5.8,85,0.00,BKN,,0.00,0.0,WeatherDisplay:10.37,2013-03-30 02:02:00,
2013-03-29 21:07:00,41.6,37.4,30.10,South,188,2.0,4.0,85,0.00,BKN,,0.00,0.0,WeatherDisplay:10.37,2013-03-30 02:07:00,
2013-03-29 21:12:00,41.5,37.6,30.10,South,179,2.2,5.8,86,0.00,BKN,,0.00,0.0,WeatherDisplay:10.37,2013-03-30 02:12:00,
2013-03-29 21:17:00,41.6,38.0,30.10,SSE,158,2.3,4.0,87,0.00,BKN,,0.00,0.0,WeatherDisplay:10.37,2013-03-30 02:17:00,
2013-03-29 21:23:00,41.3,37.7,30.10,SSE,159,1.0,2.3,87,0.00,BKN,,0.00,0.0,WeatherDisplay:10.37,2013-03-30 02:23:00,
2013-03-29 21:28:00,41.2,37.6,30.10,South,175,0.9,3.5,87,0.00,BKN,,0.00,0.0,WeatherDisplay:10.37,2013-03-30 02:28:00,
2013-03-29 21:33:00,41.3,37.7,30.10,South,191,1.3,2.3,87,0.00,BKN,,0.00,0.0,WeatherDisplay:10.37,2013-03-30 02:33:00,
2013-03-29 21:38:00,41.1,37.5,30.10,South,188,0.9,3.5,87,0.00,BKN,,0.00,0.0,WeatherDisplay:10.37,2013-03-30 02:38:00,
2013-03-29 21:43:00,41.2,37.6,30.10,South,188,1.8,4.0,87,0.00,BKN,,0.00,0.0,WeatherDisplay:10.37,2013-03-30 02:43:00,
2013-03-29 21:48:00,41.0,37.4,30.10,South,182,1.5,3.5,87,0.00,BKN,,0.00,0.0,WeatherDisplay:10.37,2013-03-30 02:48:00,
2013-03-29 21:53:00,41.1,37.5,30.09,SSE,148,1.4,3.5,87,0.00,BKN,,0.00,0.0,WeatherDisplay:10.37,2013-03-30 02:53:00,
2013-03-29 21:58:00,40.9,37.3,30.09,SSE,165,1.6,5.0,87,0.00,BKN,,0.00,0.0,WeatherDisplay:10.37,2013-03-30 02:58:00,
2013-03-29 22:03:00,40.7,37.4,30.09,South,176,1.1,3.5,88,0.00,-RA,,0.00,0.0,WeatherDisplay:10.37,2013-03-30 03:03:00,
2013-03-29 22:08:00,40.8,37.5,30.09,ESE,114,1.5,3.5,88,0.00,-RA,,0.00,0.0,WeatherDisplay:10.37,2013-03-30 03:08:00,
2013-03-29 22:13:00,40.7,37.4,30.09,South,173,2.1,4.0,88,0.00,-RA,,0.00,0.0,WeatherDisplay:10.37,2013-03-30 03:13:00,
2013-03-29 22:18:00,40.6,37.3,30.09,South,175,1.8,2.3,88,0.00,-RA,,0.00,0.0,WeatherDisplay:10.37,2013-03-30 03:18:00,
2013-03-29 22:23:00,40.6,37.6,30.08,SSE,157,0.7,2.3,89,0.00,-RA,,0.00,0.0,WeatherDisplay:10.37,2013-03-30 03:23:00,
2013-03-29 22:28:00,40.6,37.6,30.08,SSE,155,0.6,2.3,89,0.00,-RA,,0.00,0.0,WeatherDisplay:10.37,2013-03-30 03:28:00,
2013-03-29 22:33:00,40.7,37.7,30.08,South,171,0.4,1.2,89,0.00,-RA,,0.00,0.0,WeatherDisplay:10.37,2013-03-30 03:33:00,
2013-03-29 22:38:00,40.8,37.8,30.08,East,84,0.6,2.0,89,0.00,-RA,,0.00,0.0,WeatherDisplay:10.37,2013-03-30 03:38:00,
2013-03-29 22:43:00,41.0,38.0,30.08,ESE,110,1.1,2.0,89,0.00,-RA,,0.00,0.0,WeatherDisplay:10.37,2013-03-30 03:43:00,
2013-03-29 22:48:00,41.0,37.7,30.08,East,94,0.0,3.5,88,0.00,-RA,,0.00,0.0,WeatherDisplay:10.37,2013-03-30 03:48:00,
2013-03-29 22:53:00,40.9,37.6,30.08,SE,126,0.8,2.3,88,0.00,-RA,,0.00,0.0,WeatherDisplay:10.37,2013-03-30 03:53:00,
2013-03-29 22:58:00,40.7,37.4,30.07,SE,126,0.1,2.3,88,0.00,-RA,,0.00,0.0,WeatherDisplay:10.37,2013-03-30 03:58:00,
2013-03-29 23:00:00,40.7,37.4,30.07,SE,132,0.5,2.3,88,0.00,-RA,,0.00,0.0,WeatherDisplay:10.37,2013-03-30 04:00:00,
2013-03-29 23:01:00,40.7,37.4,30.07,SE,132,0.5,2.3,88,0.00,-RA,,0.00,0.0,WeatherDisplay:10.37,2013-03-30 04:01:00,
2013-03-29 23:07:00,40.7,37.4,30.07,SSE,167,1.0,2.3,88,0.00,-RA,,0.00,0.0,WeatherDisplay:10.37,2013-03-30 04:07:00,
2013-03-29 23:12:00,40.5,37.5,30.07,South,173,0.5,3.5,89,0.00,-RA,,0.00,0.0,WeatherDisplay:10.37,2013-03-30 04:12:00,
2013-03-29 23:17:00,40.1,36.8,30.07,South,188,0.6,3.0,88,0.00,-RA,,0.00,0.0,WeatherDisplay:10.37,2013-03-30 04:17:00,
2013-03-29 23:22:00,40.0,37.0,30.06,SSW,207,1.6,3.5,89,0.00,-RA,,0.00,0.0,WeatherDisplay:10.37,2013-03-30 04:22:00,
2013-03-29 23:27:00,40.4,37.7,30.06,South,177,0.8,3.5,90,0.00,-RA,,0.00,0.0,WeatherDisplay:10.37,2013-03-30 04:27:00,
2013-03-29 23:32:00,40.4,37.4,30.06,SSE,157,1.7,4.0,89,0.00,-RA,,0.00,0.0,WeatherDisplay:10.37,2013-03-30 04:32:00,
2013-03-29 23:37:00,40.5,37.5,30.05,SSW,195,1.0,3.5,89,0.00,-RA,,0.00,0.0,WeatherDisplay:10.37,2013-03-30 04:37:00,
2013-03-29 23:42:00,40.4,37.4,30.05,SE,146,2.4,4.0,89,0.00,-RA,,0.00,0.0,WeatherDisplay:10.37,2013-03-30 04:42:00,
2013-03-29 23:48:00,40.3,37.3,30.05,SE,143,2.2,4.6,89,0.00,-RA,,0.00,0.0,WeatherDisplay:10.37,2013-03-30 04:48:00,
2013-03-29 23:51:00,40.2,37.2,30.04,South,171,1.3,5.0,89,0.00,-RA,,0.00,0.0,WeatherDisplay:10.37,2013-03-30 04:51:00,
2013-03-29 23:57:00,40.2,37.5,30.04,South,190,2.5,4.0,90,0.00,-RA,,0.00,0.0,WeatherDisplay:10.37,2013-03-30 04:57:00,